Location: Munkebjergskolens Observatorium
(55.3864°N, 10.3987°E)
Time: 23:46:33
(UTC+01:00)

Envisat - Pass Details

Date: 28 November 2022
Orbit: 763 x 765 km, 98.2° (Epoch: 01 February)

Event Time Altitude Azimuth Distance (km) Brightness Sun altitude
Rises 06:43:18 0° 9° (N) 3,249 6.1 -12.4°
Reaches altitude 10° 06:46:14 10° 352° (N) 2,318 5.2 -12.0°
Maximum altitude 06:49:39 18° 310° (NW) 1,798 4.3 -11.5°
Enters shadow 06:51:47 14° 280° (W) 2,015 4.5 -11.2°
